Location: El Álamo
(40.2307°N, 3.9945°W)
Time: 03:35:33
(UTC+00:00)

Cosmos 1937 Rocket - Pass Details

Date: 19 May 2025
Orbit: 743 x 775 km, 74.0° (Epoch: 23 June)

Event Time Altitude Azimuth Distance (km) Brightness Sun altitude
Rises 20:26:12 0° 334° (NNW) 3,214 8.0 -10.1°
Reaches altitude 10° 20:28:39 10° 328° (NNW) 2,280 7.2 -10.4°
Maximum altitude 20:33:32 44° 257° (WSW) 1,025 4.5 -11.2°
Drops below altitude 10° 20:38:21 10° 186° (S) 2,251 5.6 -11.9°
Enters shadow 20:40:11 - 181° (S) 2,944 6.2 -12.2°
